Regional Weather Roundup
Issued by NWS Sterling, VA

Home | Current Version | Previous Version | Graphics & Text | Print | Product List | Glossary On
Versions: 1 2 3 4 5 6 7 8 9 10 11 12 13 14 15 16 17 18 19 20 21 22 23 24 25 26 27
000
ASUS41 KLWX 170310
RWRLWX

REGIONAL WEATHER ROUNDUP
NATIONAL WEATHER SERVICE BALTIMORE MD/WASHINGTON DC
1100 PM EDT WED APR 16 2014

Note: "FAIR" indicates few or no clouds below 12,000 feet
with no significant weather and/or obstructions to visibility.
 TC=TEMPERATURE CELSIUS

 * =Non NWS site. Station does not report precipitation (e.g. rain,
    snow, etc.), thunder, or fog.

DCZ001-MDZ009-015-VAZ040>042-051-053>054-170400-
WASHINGTON METRO

CITY           SKY/WX    TMP DP  RH WIND       PRES   REMARKS
WASHINGTON NAT CLEAR     44  21  40 E7        30.54R
DULLES         CLEAR     39  21  48 NE5       30.52R
ANDREWS AFB    CLEAR     37  24  59 E1        30.52R
FT BELVOIR     CLEAR     35  26  69 CALM      30.54R
QUANTICO       CLEAR     44  26  49 E9        30.54R
COLLEGE PARK*  CLEAR     37  28  70 CALM      30.53R
LEESBURG*      CLEAR     41  23  48 NE3       30.53S
MANASSAS*      CLEAR     41  21  45 CALM      30.53R
GAITHERSBURG*  FAIR      37  18  44 NE5       30.54R

$$

MDZ006>007-011-014-170400-
BALTIMORE METRO

CITY           SKY/WX    TMP DP  RH WIND       PRES   REMARKS
BWI AIRPORT    CLEAR     39  23  52 CALM      30.51S
MD SCIENCE CTR   N/A     44  20  38 MISG      30.52S
MARTIN STATE   CLEAR     39  28  65 CALM      30.54S
ANNAPOLIS      CLEAR     44  26  49 N3        30.52S
FORT MEADE*    CLEAR     32  27  80 CALM      30.54S

$$

MDZ012-015-019>023-170400-
MARYLAND EASTERN SHORE

CITY           SKY/WX    TMP DP  RH WIND       PRES   REMARKS
OCEAN CITY     CLEAR     42  29  59 E7        30.52R
SALISBURY      CLEAR     38  30  73 CALM      30.52S
BAY BRIDGE AP* CLEAR     43  21  42 NE3       30.53R
CAMBRIDGE*     CLEAR     37  30  75 NE3       30.52R
EASTON*        CLEAR     40  29  65 E5        30.56R

$$

MDZ017>025-170400-
SOUTHERN MARYLAND

CITY           SKY/WX    TMP DP  RH WIND       PRES   REMARKS
PATUXENT RIVER CLEAR     40  26  57 NE8       30.52R
ST INIGOES     CLEAR     37  29  72 CALM      30.52R
LEONARDTOWN*   CLEAR     36  27  69 CALM      30.54R

$$

MDZ003>005-170400-
NORTH CENTRAL MARYLAND

CITY           SKY/WX    TMP DP  RH WIND       PRES   REMARKS
FREDERICK*     FAIR      34  30  86 CALM      30.56R
HAGERSTOWN APT CLEAR     37  18  46 E5        30.50R
WESTMINSTER*   FAIR      36  19  51 CALM      30.51S

$$

MDZ501>502-170400-
WESTERN MARYLAND

CITY           SKY/WX    TMP DP  RH WIND       PRES   REMARKS
OAKLAND*       CLEAR     32   3  29 SE18G24   30.35F WCI  20
CUMBERLAND*    CLEAR     41  14  33 CALM      30.51S

$$

VAZ025>031-170400-
SHENANDOAH VALLEY

CITY           SKY/WX    TMP DP  RH WIND       PRES   REMARKS
WINCHESTER*    CLEAR     36  21  55 E3        30.49S
STAUNTON*      CLEAR     32  26  77 CALM      30.48R

$$

WVZ021-048>050-054>055-170400-
EASTERN WEST VIRGINIA PANHANDLE

CITY           SKY/WX    TMP DP  RH WIND       PRES   REMARKS
MARTINSBURG    CLEAR     39  17  41 E3        30.51R
PETERSBURG*    CLEAR     37  31  79 CALM      30.46R

$$

VAZ036>039-050-170400-
CENTRAL FOOTHILLS

CITY           SKY/WX    TMP DP  RH WIND       PRES   REMARKS
CHARLOTTESVILL CLEAR     38  18  44 N3        30.49R
CULPEPER*      CLEAR     36  27  69 CALM      30.52R

$$

VAZ055>057-170400-
NORTH AND CENTRAL PIEDMONT

CITY           SKY/WX    TMP DP  RH WIND       PRES   REMARKS
FREDERICKSBRG* CLEAR     39  28  65 CALM      30.52S
STAFFORD*      CLEAR     41  27  57 CALM      30.56S

$$

NCZ024-NYZ072-PAZ021-071-VAZ022-071-170400-
OTHER REGIONAL OBSERVATIONS

CITY           SKY/WX    TMP DP  RH WIND       PRES   REMARKS
NEW YORK CITY  CLEAR     41  15  35 NE9       30.58R
PHILADELPHIA   CLEAR     41  17  38 NE7       30.55R
PITTSBURGH     MOCLDY    38  17  42 E8        30.39S
ROANOKE        CLEAR     42  19  39 E9        30.46R
RICHMOND       CLEAR     41  23  48 NE3       30.51R
RALEIGH        CLEAR     42  28  57 E8        30.44S

$$

ANZ530>537-170400-
MARINE OBSERVATIONS

STATION/POSITION TIME  TEMP    WIND        PRES
                       AIR SEA DIR/SP/G
                 (UTC) (F)     (DEG/KT/KT) (MB)
THOMAS PT LIGHT  0300   46 52   40/ 12/ 15 1034.0R
BALT KEY BRIDGE  0300   44     360/  8/  9 1033.7S
COVE POINT       0300   45      50/  9/ 12 1033.4R
LEWISETTA        0300   45 54   20/  7/ 11 1033.1R
SOLOMONS ISLAND  0300      53                N/A
PINEY POINT      0300           60/  4/  5   N/A

$$




USA.gov is the U.S. government's official web portal to all federal, state and local government web resources and services.